Location: Peterborough
(44.3091°N, 78.3197°W)
Time: 00:59:48
(UTC-04:00)

Vanguard 2 - Pass Details

Date: 23 March 2023
Orbit: 552 x 2926 km, 32.9° (Epoch: 02 June)

Event Time Altitude Azimuth Distance (km) Brightness Sun altitude
Rises 12:42:40 0° 271° (W) 5,452 11.8 46.0°
Reaches altitude 10° 12:47:43 10° 259° (WSW) 3,979 11.3 46.2°
Maximum altitude 12:54:40 22° 214° (SW) 2,478 11.0 46.4°
Drops below altitude 10° 12:59:40 10° 166° (SSE) 2,742 11.4 46.6°
Sets 13:02:25 0° 150° (SSE) 3,408 11.5 46.6°
